Challenge Promo Run & Bike

La Sablière - Brunehault-Peronnes (10.00 km)

vendredi 01 novembre 2019

Vous pouvez trouver Le classement original sur : https://promorunbike.be
CHALLENGE PROMO RUN & BIKE
LA SABLIÈRE - BRUNEHAULT-PERONNES
DISTANCE : 9.99 km
vendredi 01 novembre 2019
 
Place dos NOM Cat. Pl/cat temps temps/km Vitesse
01:00:00              
1 16 KÉVIN CUSSE / JULIEN SOTTIAU GÉNÉRAL 1 0:36:32 03:40 16.40
2 33 LOUIS DELATTRE / HUGO COUNOY GÉNÉRAL 2 0:36:35 03:40 16.38
3 38 PAUL MEURISSE / REMI SIMOENS GÉNÉRAL 3 0:36:57 03:42 16.22
4 24 BAPTISTE KESTELYN / CHARLES KESTELYN GÉNÉRAL 4 0:37:36 03:46 15.93
5 56 ETIENNE CLAISSE / EDOUARD CLAISSE FAMILLE 1 0:37:51 03:47 15.83
6 55 STEPHANE LABEAU / VALENTIN LABEAU GÉNÉRAL 5 0:38:31 03:51 15.56
7 47 TORE PAREIN / FILIEP PAREIN FAMILLE 2 0:39:53 04:00 15.02
8 37 PIERRE-LOUIS GAY / EMELINE MESSIAN GÉNÉRAL 6 0:40:26 04:03 14.82
9 45 GHANDHI BELKHAYAT / ROBIN BELKHAYAT FAMILLE 3 0:41:02 04:07 14.60
10 44 LOIC MARBAIX / DIDIER MARBAIX GÉNÉRAL 7 0:41:42 04:11 14.37
11 42 JEROME GOBERT / JEAN-FRANÇOIS PARENT GÉNÉRAL 8 0:42:36 04:16 14.06
12 30 JEAN-CHRISTOPHE ROBIN / THIBAUT ROBIN FAMILLE 4 0:42:43 04:17 14.03
13 23 DIMITRI GREUSE / VAN ERTBRUGGEN JOHAN GÉNÉRAL 9 0:42:56 04:18 13.96
14 86 MAXIME LIZON / VINCENT BOUTRY GÉNÉRAL 10 0:43:02 04:19 13.92
15 39 MAXIM DETRIT / NICKY DETRIT FAMILLE 5 0:43:22 04:21 13.82
16 12 RÉMI TRIFIN / IVAN TRIFIN FAMILLE 6 0:43:32 04:22 13.76
17 11 JULIE SCHAILLÉE / GRÉGORY SCHOELENS GÉNÉRAL 11 0:44:04 04:25 13.60
18 68 MICHAEL CARDINAEL / MATTÉO CARDINAEL FAMILLE 7 0:44:21 04:26 13.51
19 5 THOMAS DEFREYNE / LAURA MARCHAL GÉNÉRAL 12 0:44:34 04:28 13.44
20 8 ALBAN LATOUR / CLÉMENT LATOUR GÉNÉRAL 13 0:45:36 04:34 13.14
21 73 XAVIER MESSIAEN / SOPHIE GAILLY GÉNÉRAL 14 0:46:00 04:36 13.02
22 60 EMMANUEL DUBOIS / LAURENT TAQUET GÉNÉRAL 15 0:46:08 04:37 12.99
23 34 YANIS DIRICQ / PASCAL DIRICQ FAMILLE 8 0:46:18 04:38 12.94
24 69 PATRICK LAMBERT / CORENTIN LAMBERT FAMILLE 9 0:46:28 04:39 12.89
25 81 YANNICK TURPIN / VIRGINIE MENIN GÉNÉRAL 16 0:47:27 04:45 12.63
26 41 STEPHANE DAYE / SAMUEL DAYE GÉNÉRAL 17 0:47:34 04:46 12.60
27 82 CINDY CHRISTIAENS / BASTIEN DECOBECQ GÉNÉRAL 18 0:47:44 04:47 12.55
28 35 HÉLOISE DIRICQ / NOLWEEN DIRICQ FAMILLE 10 0:47:53 04:48 12.51
29 63 JULIE COLLAGE / CYRIL BOUTRY GÉNÉRAL 19 0:48:18 04:50 12.40
30 49 LOUIS LELEU / MAXIME ERGO JEUNES A 1 0:48:28 04:51 12.36
31 62 TIMOTHÉE TAQUET / ADRIEN TAQUET GÉNÉRAL 20 0:48:43 04:53 12.30
32 53 CLAIRE TOURBEZ / CHRISTOPHE CHUFFART GÉNÉRAL 21 0:48:46 04:53 12.29
33 28 ADRIEN PLATTEAU / OLIVIER PLATTEAU FAMILLE 11 0:48:58 04:54 12.24
34 71 MÉGANE FACK / LOÏC BROUILLARD GÉNÉRAL 22 0:49:15 04:56 12.17
35 10 ANN SAFFRE / RÉMI CAMPENER FAMILLE 12 0:49:24 04:57 12.13
36 61 NICOLAS NESTOR / BENOIT DENIS GÉNÉRAL 23 0:49:31 04:58 12.10
37 36 JOHAN DESCAMPS / INGRID CAPPELLETTI GÉNÉRAL 24 0:49:34 04:58 12.09
38 85 MARC LEBLON / VANESSA LETERME GÉNÉRAL 25 0:49:38 04:58 12.07
39 15 THIBAUT BELKHAYAT / CAMILLE DEBONNET JEUNES B 1 0:49:58 05:00 11.99
40 74 MARIE PEETERS / MARIE PEETERS FAMILLE 13 0:50:14 05:02 11.93
41 80 DAMIEN MULNARD / THOMAS DUMORTIER GÉNÉRAL 26 0:50:20 05:02 11.90
42 66 FRANÇOISE GLAUTIER / PAULIN LENCLU GÉNÉRAL 27 0:50:28 05:03 11.87
43 50 THOMAS DE CRAENE / SÉVERINE CARPENTIER FAMILLE 14 0:51:09 05:07 11.71
44 4 JEAN DEBONNET / ARTHUR NOPPE JEUNES B 2 0:51:46 05:11 11.57
45 75 LON WILLOCQ / OLIVIER VALET FAMILLE 15 0:52:14 05:14 11.47
46 13 JEANNE WYSSEUR / CLAUDINE LAMBRIX GÉNÉRAL 28 0:52:23 05:15 11.44
47 46 GREGORY BILLET / ALEXANDRA COUSSEMENT GÉNÉRAL 29 0:52:26 05:15 11.43
48 51 ANTOINE TAMINIAU / DELPHINE DEHERDER GÉNÉRAL 30 0:52:57 05:18 11.32
49 79 THOMAS CADRON / HUGO DELZENNE GÉNÉRAL 31 0:53:35 05:22 11.18
50 48 GAUTHIER STELLIAN / CAMILLE STELLIAN FAMILLE 16 0:53:43 05:23 11.15
51 54 ELISE BERGERET / SÉBASTIEN BERGERET FAMILLE 17 0:53:59 05:24 11.10
52 76 HARRY WOLFWANA / HUGO WOLFWANA FAMILLE 18 0:54:43 05:29 10.95
53 58 JORIS CARLIER / GUILLAUME RASSENEUR GÉNÉRAL 32 0:54:57 05:30 10.90
54 52 GAUTHIER BELIN / RÉMY REYMENANTS JEUNES B 3 0:55:19 05:32 10.83
55 67 MATTIAS CARDINAEL / ETHAN MICHEL JEUNES A 2 0:55:42 05:35 10.76
56 43 KATTY BERNARD / VÉRONIQUE THOMAS GÉNÉRAL 33 0:55:59 05:36 10.70
57 1 CAROLINE CHAMART / PASCAL LEROY GÉNÉRAL 34 0:56:22 05:39 10.63
58 77 STEPHANIE FUNDUK / CORALINE COCHEZ GÉNÉRAL 35 0:56:25 05:39 10.62
59 84 AUDE LEROY / AUDREY LEROY GÉNÉRAL 36 0:57:23 05:45 10.44
60 70 CAROLINE VAN COILLIE / EMILIE FRIQUE GÉNÉRAL 37 0:57:33 05:46 10.41
61 83 TIPHAINE DELBECQ / MARIE BEYET GÉNÉRAL 38 0:57:39 05:46 10.39
62 65 LUC VAN DE WALLE / WIM DE MOL GÉNÉRAL 39 0:58:33 05:52 10.23
63 6 JULIE DUBUISSON / INES LECONTE GÉNÉRAL 40 0:58:52 05:54 10.18
64 9 CORALIE MOUTURY / SYLVIE PEUTTE GÉNÉRAL 41 0:59:15 05:56 10.11
65 59 CLOTHILDE LEROY / REMY PIROTTE GÉNÉRAL 42 0:59:21 05:57 10.10
66 40 CHRISTELLE DANGREAU / PHILIPPE DEBOUSSE GÉNÉRAL 43 0:59:32 05:58 10.06
67 7 JULIE DUREZ / MATTHIEU RIGAUX GÉNÉRAL 44 1:00:01 06:01 9.98
68 72 SOLINE HAIDON / OPHELIE DEWAELE GÉNÉRAL 45 1:00:21 06:03 9.93
69 87 DAVID ROUSSEAU / THOMAS ROUSSEAU FAMILLE 19 1:00:44 06:05 9.87
70 2 MAËLLE CLÉMENT / VICTORIEN CLÉMENT JEUNES A 3 1:00:52 06:06 9.84
71 31 MÉGANE FACK / LOÏC BROUILLARD GÉNÉRAL 46 1:01:33 06:10 9.73
72 3 NATHALIE CLÉMENT / ISABELLE GOREZ GÉNÉRAL 47 1:01:40 06:11 9.72
73 25 RENARD LOUISE / ISABELLE VANDENBULCKE GÉNÉRAL 48 1:03:32 06:22 9.43
74 19 KÉVIN DEGAND / LAURA DUMORTIER GÉNÉRAL 49 1:04:17 06:26 9.32
75 78 THIBO CADRON / HUGO CADRON FAMILLE 20 1:04:50 06:30 9.24
76 17 CHANTAL DE NEVE / AMÉLIE DEBLED GÉNÉRAL 50 1:05:55 06:36 9.09
77 64 CLEMENT FLAMENG / CELESTIN BOUTRY JEUNES A 4 1:08:36 06:52 8.73
78 57 ELLIE FLAMENG / LAURENT FLAMENG FAMILLE 21 1:09:26 06:57 8.63